Year,Month,Day,Hour,Minute,Value (Times are PST for temperature in C)
2009,09,17,00,00,11.70
2009,09,17,00,01,11.60
2009,09,17,00,02,11.60
2009,09,17,00,03,11.60
2009,09,17,00,04,11.50
2009,09,17,00,05,11.40
2009,09,17,00,06,11.40
2009,09,17,00,07,11.40
2009,09,17,00,08,11.30
2009,09,17,00,09,11.30
2009,09,17,00,10,11.30
2009,09,17,00,11,11.20
2009,09,17,00,12,11.20
2009,09,17,00,13,11.30
2009,09,17,00,14,11.40
2009,09,17,00,15,11.40
2009,09,17,00,16,11.40
2009,09,17,00,17,11.40
2009,09,17,00,18,11.40
2009,09,17,00,19,11.40
2009,09,17,00,20,11.40
2009,09,17,00,21,11.40
2009,09,17,00,22,11.40
2009,09,17,00,23,11.40
2009,09,17,00,24,11.30
2009,09,17,00,25,11.30
2009,09,17,00,26,11.20
2009,09,17,00,27,11.20
2009,09,17,00,28,11.20
2009,09,17,00,29,11.30
2009,09,17,00,30,11.30
2009,09,17,00,31,11.40
2009,09,17,00,32,11.60
2009,09,17,00,33,11.70
2009,09,17,00,34,11.90
2009,09,17,00,35,12.00
2009,09,17,00,36,12.20
2009,09,17,00,37,12.30
2009,09,17,00,38,12.40
2009,09,17,00,39,12.50
2009,09,17,00,40,12.60
2009,09,17,00,41,12.70
2009,09,17,00,42,12.80
2009,09,17,00,43,12.80
2009,09,17,00,44,12.80
2009,09,17,00,45,12.80
2009,09,17,00,46,12.80
2009,09,17,00,47,12.90
2009,09,17,00,48,12.80
2009,09,17,00,49,12.80
2009,09,17,00,50,12.80
2009,09,17,00,51,12.80
2009,09,17,00,52,12.80
2009,09,17,00,53,12.70
2009,09,17,00,54,12.60
2009,09,17,00,55,12.60
2009,09,17,00,56,12.50
2009,09,17,00,57,12.40
2009,09,17,00,58,12.30
2009,09,17,00,59,12.20
2009,09,17,01,00,12.10
2009,09,17,01,01,12.00
2009,09,17,01,02,12.00
2009,09,17,01,03,11.90
2009,09,17,01,04,11.90
2009,09,17,01,05,11.80
2009,09,17,01,06,11.80
2009,09,17,01,07,11.80
2009,09,17,01,08,11.70
2009,09,17,01,09,11.70
2009,09,17,01,10,11.60
2009,09,17,01,11,11.60
2009,09,17,01,12,11.60
2009,09,17,01,13,11.60
2009,09,17,01,14,11.60
2009,09,17,01,15,11.60
2009,09,17,01,16,11.60
2009,09,17,01,17,11.60
2009,09,17,01,18,11.60
2009,09,17,01,19,11.60
2009,09,17,01,20,11.60
2009,09,17,01,21,11.60
2009,09,17,01,22,11.60
2009,09,17,01,23,11.70
2009,09,17,01,24,11.70
2009,09,17,01,25,11.70
2009,09,17,01,26,11.80
2009,09,17,01,27,11.80
2009,09,17,01,28,11.80
2009,09,17,01,29,11.80
2009,09,17,01,30,11.90
2009,09,17,01,31,11.90
2009,09,17,01,32,12.00
2009,09,17,01,33,12.00
2009,09,17,01,34,12.00
2009,09,17,01,35,12.10
2009,09,17,01,36,12.10
2009,09,17,01,37,12.10
2009,09,17,01,38,12.20
2009,09,17,01,39,12.20
2009,09,17,01,40,12.20
2009,09,17,01,41,12.20
2009,09,17,01,42,12.20
2009,09,17,01,43,12.20
2009,09,17,01,44,12.20
2009,09,17,01,45,12.10
2009,09,17,01,46,12.10
2009,09,17,01,47,12.00
2009,09,17,01,48,11.90
2009,09,17,01,49,11.70
2009,09,17,01,50,11.60
2009,09,17,01,51,11.60
2009,09,17,01,52,11.50
2009,09,17,01,53,11.40
2009,09,17,01,54,11.40
2009,09,17,01,55,11.40
2009,09,17,01,56,11.40
2009,09,17,01,57,11.40
2009,09,17,01,58,11.30
2009,09,17,01,59,11.30
2009,09,17,02,00,11.30
2009,09,17,02,01,11.20
2009,09,17,02,02,11.20
2009,09,17,02,03,11.20
2009,09,17,02,04,11.20
2009,09,17,02,05,11.10
2009,09,17,02,06,11.10
2009,09,17,02,07,11.10
2009,09,17,02,08,11.00
2009,09,17,02,09,10.90
2009,09,17,02,10,10.90
2009,09,17,02,11,10.90
2009,09,17,02,12,10.90
2009,09,17,02,13,11.00
2009,09,17,02,14,11.10
2009,09,17,02,15,11.10
2009,09,17,02,16,11.10
2009,09,17,02,17,11.00
2009,09,17,02,18,10.90
2009,09,17,02,19,10.90
2009,09,17,02,20,10.90
2009,09,17,02,21,10.90
2009,09,17,02,22,10.90
2009,09,17,02,23,10.90
2009,09,17,02,24,10.90
2009,09,17,02,25,10.90
2009,09,17,02,26,10.90
2009,09,17,02,27,10.90
2009,09,17,02,28,10.90
2009,09,17,02,29,10.90
2009,09,17,02,30,10.90
2009,09,17,02,31,10.90
2009,09,17,02,32,10.90
2009,09,17,02,33,10.90
2009,09,17,02,34,10.90
2009,09,17,02,35,10.90
2009,09,17,02,36,10.90
2009,09,17,02,37,10.90
2009,09,17,02,38,10.90
2009,09,17,02,39,10.90
2009,09,17,02,40,10.90
2009,09,17,02,41,10.90
2009,09,17,02,42,10.90
2009,09,17,02,43,10.90
2009,09,17,02,44,10.90
2009,09,17,02,45,10.90
2009,09,17,02,46,10.90
2009,09,17,02,47,11.00
2009,09,17,02,48,11.10
2009,09,17,02,49,11.10
2009,09,17,02,50,11.20
2009,09,17,02,51,11.20
2009,09,17,02,52,11.30
2009,09,17,02,53,11.30
2009,09,17,02,54,11.30
2009,09,17,02,55,11.40
2009,09,17,02,56,11.40
2009,09,17,02,57,11.40
2009,09,17,02,58,11.40
2009,09,17,02,59,11.40
2009,09,17,03,00,11.50
2009,09,17,03,01,11.60
2009,09,17,03,02,11.60
2009,09,17,03,03,11.60
2009,09,17,03,04,11.70
2009,09,17,03,05,11.70
2009,09,17,03,06,11.70
2009,09,17,03,07,11.70
2009,09,17,03,08,11.70
2009,09,17,03,09,11.80
2009,09,17,03,10,11.80
2009,09,17,03,11,11.80
2009,09,17,03,12,11.80
2009,09,17,03,13,11.80
2009,09,17,03,14,11.80
2009,09,17,03,15,11.80
2009,09,17,03,16,11.80
2009,09,17,03,17,11.80
2009,09,17,03,18,11.80
2009,09,17,03,19,11.80
2009,09,17,03,20,11.80
2009,09,17,03,21,11.80
2009,09,17,03,22,11.80
2009,09,17,03,23,11.80
2009,09,17,03,24,11.80
2009,09,17,03,25,11.80
2009,09,17,03,26,11.80
2009,09,17,03,27,11.80
2009,09,17,03,28,11.80
2009,09,17,03,29,11.80
2009,09,17,03,30,11.80
2009,09,17,03,31,11.70
2009,09,17,03,32,11.70
2009,09,17,03,33,11.80
2009,09,17,03,34,11.80
2009,09,17,03,35,11.80
2009,09,17,03,36,11.80
2009,09,17,03,37,11.80
2009,09,17,03,38,11.80
2009,09,17,03,39,11.80
2009,09,17,03,40,11.80
2009,09,17,03,41,11.80
2009,09,17,03,42,11.70
2009,09,17,03,43,11.70
2009,09,17,03,44,11.70
2009,09,17,03,45,11.70
2009,09,17,03,46,11.70
2009,09,17,03,47,11.70
2009,09,17,03,48,11.70
2009,09,17,03,49,11.70
2009,09,17,03,50,11.70
2009,09,17,03,51,11.70
2009,09,17,03,52,11.60
2009,09,17,03,53,11.60
2009,09,17,03,54,11.60
2009,09,17,03,55,11.60
2009,09,17,03,56,11.60
2009,09,17,03,57,11.50
2009,09,17,03,58,11.40
2009,09,17,03,59,11.40
2009,09,17,04,00,11.40
2009,09,17,04,01,11.30
2009,09,17,04,02,11.30
2009,09,17,04,03,11.20
2009,09,17,04,04,11.20
2009,09,17,04,05,11.20
2009,09,17,04,06,11.20
2009,09,17,04,07,11.20
2009,09,17,04,08,11.20
2009,09,17,04,09,11.20
2009,09,17,04,10,11.20
2009,09,17,04,11,11.20
2009,09,17,04,12,11.20
2009,09,17,04,13,11.20
2009,09,17,04,14,11.20
2009,09,17,04,15,11.20
2009,09,17,04,16,11.20
2009,09,17,04,17,11.20
2009,09,17,04,18,11.20
2009,09,17,04,19,11.20
2009,09,17,04,20,11.20
2009,09,17,04,21,11.10
2009,09,17,04,22,11.10
2009,09,17,04,23,11.10
2009,09,17,04,24,11.00
2009,09,17,04,25,10.90
2009,09,17,04,26,10.90
2009,09,17,04,27,10.90
2009,09,17,04,28,10.90
2009,09,17,04,29,10.90
2009,09,17,04,30,10.90
2009,09,17,04,31,10.90
2009,09,17,04,32,10.90
2009,09,17,04,33,10.90
2009,09,17,04,34,11.00
2009,09,17,04,35,11.10
2009,09,17,04,36,11.10
2009,09,17,04,37,11.10
2009,09,17,04,38,11.10
2009,09,17,04,39,11.10
2009,09,17,04,40,11.00
2009,09,17,04,41,10.90
2009,09,17,04,42,10.80
2009,09,17,04,43,10.70
2009,09,17,04,44,10.70
2009,09,17,04,45,10.70
2009,09,17,04,46,10.70
2009,09,17,04,47,10.80
2009,09,17,04,48,10.80
2009,09,17,04,49,10.80
2009,09,17,04,50,10.90
2009,09,17,04,51,10.90
2009,09,17,04,52,10.90
2009,09,17,04,53,10.90
2009,09,17,04,54,10.90
2009,09,17,04,55,10.90
2009,09,17,04,56,10.90
2009,09,17,04,57,10.90
2009,09,17,04,58,10.80
2009,09,17,04,59,10.80
2009,09,17,05,00,10.70
2009,09,17,05,01,10.70
2009,09,17,05,02,10.60
2009,09,17,05,03,10.60
2009,09,17,05,04,10.60
2009,09,17,05,05,10.60
2009,09,17,05,06,10.60
2009,09,17,05,07,10.60
2009,09,17,05,08,10.60
2009,09,17,05,09,10.60
2009,09,17,05,10,10.60
2009,09,17,05,11,10.60
2009,09,17,05,12,10.60
2009,09,17,05,13,10.60
2009,09,17,05,14,10.60
2009,09,17,05,15,10.60
2009,09,17,05,16,10.60
2009,09,17,05,17,10.60
2009,09,17,05,18,10.60
2009,09,17,05,19,10.60
2009,09,17,05,20,10.60
2009,09,17,05,21,10.70
2009,09,17,05,22,10.70
2009,09,17,05,23,10.80
2009,09,17,05,24,10.80
2009,09,17,05,25,10.90
2009,09,17,05,26,10.90
2009,09,17,05,27,10.90
2009,09,17,05,28,10.90
2009,09,17,05,29,10.90
2009,09,17,05,30,10.90
2009,09,17,05,31,10.90
2009,09,17,05,32,10.90
2009,09,17,05,33,10.90
2009,09,17,05,34,10.90
2009,09,17,05,35,10.90
2009,09,17,05,36,10.90
2009,09,17,05,37,11.00
2009,09,17,05,38,11.10
2009,09,17,05,39,11.10
2009,09,17,05,40,11.10
2009,09,17,05,41,11.10
2009,09,17,05,42,11.10
2009,09,17,05,43,11.10
2009,09,17,05,44,11.10
2009,09,17,05,45,11.10
2009,09,17,05,46,11.10
2009,09,17,05,47,11.10
2009,09,17,05,48,11.10
2009,09,17,05,49,11.10
2009,09,17,05,50,11.10
2009,09,17,05,51,11.00
2009,09,17,05,52,10.90
2009,09,17,05,53,10.90
2009,09,17,05,54,10.90
2009,09,17,05,55,10.80
2009,09,17,05,56,10.70
2009,09,17,05,57,10.60
2009,09,17,05,58,10.60
2009,09,17,05,59,10.50
2009,09,17,06,00,10.40
2009,09,17,06,01,10.30
2009,09,17,06,02,10.20
2009,09,17,06,03,10.20
2009,09,17,06,04,10.10
2009,09,17,06,05,10.10
2009,09,17,06,06,9.90
2009,09,17,06,07,9.90
2009,09,17,06,08,9.90
2009,09,17,06,09,9.80
2009,09,17,06,10,9.80
2009,09,17,06,11,9.70
2009,09,17,06,12,9.70
2009,09,17,06,13,9.70
2009,09,17,06,14,9.70
2009,09,17,06,15,9.70
2009,09,17,06,16,9.60
2009,09,17,06,17,9.60
2009,09,17,06,18,9.60
2009,09,17,06,19,9.60
2009,09,17,06,20,9.60
2009,09,17,06,21,9.50
2009,09,17,06,22,9.50
2009,09,17,06,23,9.50
2009,09,17,06,24,9.50
2009,09,17,06,25,9.50
2009,09,17,06,26,9.60
2009,09,17,06,27,9.60
2009,09,17,06,28,9.60
2009,09,17,06,29,9.60
2009,09,17,06,30,9.70
2009,09,17,06,31,9.70
2009,09,17,06,32,9.70
2009,09,17,06,33,9.70
2009,09,17,06,34,9.70
2009,09,17,06,35,9.70
2009,09,17,06,36,9.80
2009,09,17,06,37,9.80
2009,09,17,06,38,9.80
2009,09,17,06,39,9.90
2009,09,17,06,40,9.90
2009,09,17,06,41,9.90
2009,09,17,06,42,9.90
2009,09,17,06,43,10.00
2009,09,17,06,44,10.10
2009,09,17,06,45,10.10
2009,09,17,06,46,10.20
2009,09,17,06,47,10.20
2009,09,17,06,48,10.30
2009,09,17,06,49,10.30
2009,09,17,06,50,10.40
2009,09,17,06,51,10.40
2009,09,17,06,52,10.40
2009,09,17,06,53,10.40
2009,09,17,06,54,10.40
2009,09,17,06,55,10.40
2009,09,17,06,56,10.50
2009,09,17,06,57,10.60
2009,09,17,06,58,10.60
2009,09,17,06,59,10.60
2009,09,17,07,00,10.60
2009,09,17,07,01,10.60
2009,09,17,07,02,10.60
2009,09,17,07,03,10.60
2009,09,17,07,04,10.60
2009,09,17,07,05,10.60
2009,09,17,07,06,10.60
2009,09,17,07,07,10.60
2009,09,17,07,08,10.60
2009,09,17,07,09,10.60
2009,09,17,07,10,10.60
2009,09,17,07,11,10.60
2009,09,17,07,12,10.60
2009,09,17,07,13,10.60
2009,09,17,07,14,10.60
2009,09,17,07,15,10.60
2009,09,17,07,16,10.60
2009,09,17,07,17,10.60
2009,09,17,07,18,10.60
2009,09,17,07,19,10.60
2009,09,17,07,20,10.60
2009,09,17,07,21,10.60
2009,09,17,07,22,10.60
2009,09,17,07,23,10.60
2009,09,17,07,24,10.60
2009,09,17,07,25,10.60
2009,09,17,07,26,10.70
2009,09,17,07,27,10.70
2009,09,17,07,28,10.70
2009,09,17,07,29,10.70
2009,09,17,07,30,10.70
2009,09,17,07,31,10.70
2009,09,17,07,32,10.70
2009,09,17,07,33,10.70
2009,09,17,07,34,10.70
2009,09,17,07,35,10.70
2009,09,17,07,36,10.70
2009,09,17,07,37,10.70
2009,09,17,07,38,10.70
2009,09,17,07,39,10.70
2009,09,17,07,40,10.80
2009,09,17,07,41,10.80
2009,09,17,07,42,10.80
2009,09,17,07,43,10.80
2009,09,17,07,44,10.80
2009,09,17,07,45,10.70
2009,09,17,07,46,10.70
2009,09,17,07,47,10.70
2009,09,17,07,48,10.70
2009,09,17,07,49,10.60
2009,09,17,07,50,10.60
2009,09,17,07,51,10.60
2009,09,17,07,52,10.60
2009,09,17,07,53,10.60
2009,09,17,07,54,10.70
2009,09,17,07,55,10.70
2009,09,17,07,56,10.70
2009,09,17,07,57,10.70
2009,09,17,07,58,10.70
2009,09,17,07,59,10.70
2009,09,17,08,00,10.80
2009,09,17,08,01,10.80
2009,09,17,08,02,10.80
2009,09,17,08,03,10.80
2009,09,17,08,04,10.80
2009,09,17,08,05,10.80
2009,09,17,08,06,10.80
2009,09,17,08,07,10.90
2009,09,17,08,08,10.90
2009,09,17,08,09,10.90
2009,09,17,08,10,10.90
2009,09,17,08,11,10.90
2009,09,17,08,12,10.90
2009,09,17,08,13,10.90
2009,09,17,08,14,10.90
2009,09,17,08,15,10.90
2009,09,17,08,16,10.90
2009,09,17,08,17,10.90
2009,09,17,08,18,10.90
2009,09,17,08,19,10.90
2009,09,17,08,20,10.90
2009,09,17,08,21,11.00
2009,09,17,08,22,11.10
2009,09,17,08,23,11.10
2009,09,17,08,24,11.10
2009,09,17,08,25,11.10
2009,09,17,08,26,11.10
2009,09,17,08,27,11.10
2009,09,17,08,28,11.10
2009,09,17,08,29,11.10
2009,09,17,08,30,11.10
2009,09,17,08,31,11.10
2009,09,17,08,32,11.10
2009,09,17,08,33,11.10
2009,09,17,08,34,11.10
2009,09,17,08,35,11.10
2009,09,17,08,36,11.10
2009,09,17,08,37,11.10
2009,09,17,08,38,11.20
2009,09,17,08,39,11.20
2009,09,17,08,40,11.30
2009,09,17,08,41,11.30
2009,09,17,08,42,11.40
2009,09,17,08,43,11.40
2009,09,17,08,44,11.40
2009,09,17,08,45,11.60
2009,09,17,08,46,11.60
2009,09,17,08,47,11.60
2009,09,17,08,48,11.70
2009,09,17,08,49,11.70
2009,09,17,08,50,11.80
2009,09,17,08,51,11.80
2009,09,17,08,52,11.80
2009,09,17,08,53,11.90
2009,09,17,08,54,12.00
2009,09,17,08,55,12.00
2009,09,17,08,56,12.10
2009,09,17,08,57,12.10
2009,09,17,08,58,12.20
2009,09,17,08,59,12.30
2009,09,17,09,00,12.30
2009,09,17,09,01,12.40
2009,09,17,09,02,12.40
2009,09,17,09,03,12.50
2009,09,17,09,04,12.50
2009,09,17,09,05,12.50
2009,09,17,09,06,12.50
2009,09,17,09,07,12.60
2009,09,17,09,08,12.60
2009,09,17,09,09,12.60
2009,09,17,09,10,12.70
2009,09,17,09,11,12.70
2009,09,17,09,12,12.80
2009,09,17,09,13,12.80
2009,09,17,09,14,12.80
2009,09,17,09,15,12.90
2009,09,17,09,16,13.00
2009,09,17,09,17,13.00
2009,09,17,09,18,13.10
2009,09,17,09,19,13.20
2009,09,17,09,20,13.20
2009,09,17,09,21,13.30
2009,09,17,09,22,13.30
2009,09,17,09,23,13.30
2009,09,17,09,24,13.30
2009,09,17,09,25,13.30
2009,09,17,09,26,13.30
2009,09,17,09,27,13.40
2009,09,17,09,28,13.40
2009,09,17,09,29,13.50
2009,09,17,09,30,13.60
2009,09,17,09,31,13.60
2009,09,17,09,32,13.70
2009,09,17,09,33,13.70
2009,09,17,09,34,13.70
2009,09,17,09,35,13.80
2009,09,17,09,36,13.80
2009,09,17,09,37,13.80
2009,09,17,09,38,13.80
2009,09,17,09,39,13.90
2009,09,17,09,40,14.00
2009,09,17,09,41,14.00
2009,09,17,09,42,14.00
2009,09,17,09,43,14.10
2009,09,17,09,44,14.20
2009,09,17,09,45,14.20
2009,09,17,09,46,14.20
2009,09,17,09,47,14.20
2009,09,17,09,48,14.20
2009,09,17,09,49,14.20
2009,09,17,09,50,14.20
2009,09,17,09,51,14.20
2009,09,17,09,52,14.20
2009,09,17,09,53,14.20
2009,09,17,09,54,14.20
2009,09,17,09,55,14.20
2009,09,17,09,56,14.20
2009,09,17,09,57,14.30
2009,09,17,09,58,14.40
2009,09,17,09,59,14.40
2009,09,17,10,00,14.30
2009,09,17,10,01,14.40
2009,09,17,10,02,14.40
2009,09,17,10,03,14.50
2009,09,17,10,04,14.60
2009,09,17,10,05,14.60
2009,09,17,10,06,14.70
2009,09,17,10,07,14.60
2009,09,17,10,08,14.60
2009,09,17,10,09,14.60
2009,09,17,10,10,14.60
2009,09,17,10,11,14.70
2009,09,17,10,12,14.70
2009,09,17,10,13,14.70
2009,09,17,10,14,14.70
2009,09,17,10,15,14.70
2009,09,17,10,16,14.80
2009,09,17,10,17,14.80
2009,09,17,10,18,14.80
2009,09,17,10,19,14.90
2009,09,17,10,20,14.90
2009,09,17,10,21,14.90
2009,09,17,10,22,15.00
2009,09,17,10,23,15.10
2009,09,17,10,24,15.10
2009,09,17,10,25,15.00
2009,09,17,10,26,14.90
2009,09,17,10,27,14.70
2009,09,17,10,28,14.50
2009,09,17,10,29,14.40
2009,09,17,10,30,14.30
2009,09,17,10,31,14.20
2009,09,17,10,32,14.20
2009,09,17,10,33,14.40
2009,09,17,10,34,14.50
2009,09,17,10,35,14.40
2009,09,17,10,36,14.20
2009,09,17,10,37,14.00
2009,09,17,10,38,13.90
2009,09,17,10,39,13.70
2009,09,17,10,40,13.70
2009,09,17,10,41,13.60
2009,09,17,10,42,13.70
2009,09,17,10,43,13.70
2009,09,17,10,44,13.70
2009,09,17,10,45,13.80
2009,09,17,10,46,13.90
2009,09,17,10,47,14.00
2009,09,17,10,48,13.90
2009,09,17,10,49,13.80
2009,09,17,10,50,13.70
2009,09,17,10,51,13.80
2009,09,17,10,52,13.90
2009,09,17,10,53,13.90
2009,09,17,10,54,13.90
2009,09,17,10,55,13.90
2009,09,17,10,56,14.00
2009,09,17,10,57,14.00
2009,09,17,10,58,14.00
2009,09,17,10,59,14.10
2009,09,17,11,00,14.10
2009,09,17,11,01,14.00
2009,09,17,11,02,14.00
2009,09,17,11,03,14.00
2009,09,17,11,04,14.00
2009,09,17,11,05,14.00
2009,09,17,11,06,14.00
2009,09,17,11,07,14.00
2009,09,17,11,08,14.10
2009,09,17,11,09,14.20
2009,09,17,11,10,14.30
2009,09,17,11,11,14.30
2009,09,17,11,12,14.20
2009,09,17,11,13,14.20
2009,09,17,11,14,14.20
2009,09,17,11,15,14.30
2009,09,17,11,16,14.40
2009,09,17,11,17,14.40
2009,09,17,11,18,14.30
2009,09,17,11,19,14.40
2009,09,17,11,20,14.50
2009,09,17,11,21,14.50
2009,09,17,11,22,14.50
2009,09,17,11,23,14.50
2009,09,17,11,24,14.50
2009,09,17,11,25,14.50
2009,09,17,11,26,14.50
2009,09,17,11,27,14.60
2009,09,17,11,28,14.70
2009,09,17,11,29,14.80
2009,09,17,11,30,14.90
2009,09,17,11,31,15.00
2009,09,17,11,32,15.00
2009,09,17,11,33,14.90
2009,09,17,11,34,14.90
2009,09,17,11,35,14.90
2009,09,17,11,36,14.90
2009,09,17,11,37,14.80
2009,09,17,11,38,14.80
2009,09,17,11,39,14.70
2009,09,17,11,40,14.70
2009,09,17,11,41,14.70
2009,09,17,11,42,14.70
2009,09,17,11,43,14.70
2009,09,17,11,44,14.60
2009,09,17,11,45,14.60
2009,09,17,11,46,14.40
2009,09,17,11,47,14.20
2009,09,17,11,48,14.20
2009,09,17,11,49,14.20
2009,09,17,11,50,14.20
2009,09,17,11,51,14.20
2009,09,17,11,52,14.10
2009,09,17,11,53,14.20
2009,09,17,11,54,14.30
2009,09,17,11,55,14.40
2009,09,17,11,56,14.40
2009,09,17,11,57,14.50
2009,09,17,11,58,14.60
2009,09,17,11,59,14.60
2009,09,17,12,00,14.60
2009,09,17,12,01,14.60
2009,09,17,12,02,14.60
2009,09,17,12,03,14.60
2009,09,17,12,04,14.70
2009,09,17,12,05,14.70
2009,09,17,12,06,14.70
2009,09,17,12,07,14.70
2009,09,17,12,08,14.60
2009,09,17,12,09,14.60
2009,09,17,12,10,14.60
2009,09,17,12,11,14.50
2009,09,17,12,12,14.50
2009,09,17,12,13,14.60
2009,09,17,12,14,14.60
2009,09,17,12,15,14.70
2009,09,17,12,16,14.80
2009,09,17,12,17,14.70
2009,09,17,12,18,14.60
2009,09,17,12,19,14.50
2009,09,17,12,20,14.50
2009,09,17,12,21,14.50
2009,09,17,12,22,14.60
2009,09,17,12,23,14.70
2009,09,17,12,24,14.80
2009,09,17,12,25,14.70
2009,09,17,12,26,14.70
2009,09,17,12,27,14.90
2009,09,17,12,28,15.00
2009,09,17,12,29,15.20
2009,09,17,12,30,15.30
2009,09,17,12,31,15.50
2009,09,17,12,32,15.70
2009,09,17,12,33,15.80
2009,09,17,12,34,15.80
2009,09,17,12,35,15.80
2009,09,17,12,36,15.80
2009,09,17,12,37,15.80
2009,09,17,12,38,15.90
2009,09,17,12,39,16.00
2009,09,17,12,40,16.10
2009,09,17,12,41,16.10
2009,09,17,12,42,16.10
2009,09,17,12,43,16.20
2009,09,17,12,44,16.30
2009,09,17,12,45,16.20
2009,09,17,12,46,16.30
2009,09,17,12,47,16.20
2009,09,17,12,48,16.20
2009,09,17,12,49,16.20
2009,09,17,12,50,16.30
2009,09,17,12,51,16.20
2009,09,17,12,52,16.20
2009,09,17,12,53,16.10
2009,09,17,12,54,16.10
2009,09,17,12,55,16.00
2009,09,17,12,56,15.90
2009,09,17,12,57,15.80
2009,09,17,12,58,15.80
2009,09,17,12,59,15.80
2009,09,17,13,00,15.80
2009,09,17,13,01,15.80
2009,09,17,13,02,15.80
2009,09,17,13,03,15.80
2009,09,17,13,04,15.90
2009,09,17,13,05,16.00
2009,09,17,13,06,16.10
2009,09,17,13,07,16.20
2009,09,17,13,08,16.30
2009,09,17,13,09,16.50
2009,09,17,13,10,16.60
2009,09,17,13,11,16.80
2009,09,17,13,12,16.90
2009,09,17,13,13,16.90
2009,09,17,13,14,16.80
2009,09,17,13,15,16.60
2009,09,17,13,16,16.50
2009,09,17,13,17,16.40
2009,09,17,13,18,16.30
2009,09,17,13,19,16.30
2009,09,17,13,20,16.20
2009,09,17,13,21,16.20
2009,09,17,13,22,16.20
2009,09,17,13,23,16.20
2009,09,17,13,24,16.20
2009,09,17,13,25,16.30
2009,09,17,13,26,16.30
2009,09,17,13,27,16.20
2009,09,17,13,28,16.20
2009,09,17,13,29,16.30
2009,09,17,13,30,16.40
2009,09,17,13,31,16.40
2009,09,17,13,32,16.40
2009,09,17,13,33,16.50
2009,09,17,13,34,16.70
2009,09,17,13,35,16.70
2009,09,17,13,36,16.60
2009,09,17,13,37,16.60
2009,09,17,13,38,16.50
2009,09,17,13,39,16.40
2009,09,17,13,40,16.40
2009,09,17,13,41,16.60
2009,09,17,13,42,16.70
2009,09,17,13,43,16.90
2009,09,17,13,44,17.10
2009,09,17,13,45,17.30
2009,09,17,13,46,17.50
2009,09,17,13,47,17.60
2009,09,17,13,48,17.60
2009,09,17,13,49,17.70
2009,09,17,13,50,17.80
2009,09,17,13,51,17.80
2009,09,17,13,52,17.80
2009,09,17,13,53,17.90
2009,09,17,13,54,18.00
2009,09,17,13,55,18.10
2009,09,17,13,56,18.20
2009,09,17,13,57,18.20
2009,09,17,13,58,18.30
2009,09,17,13,59,18.40
2009,09,17,14,00,18.50
2009,09,17,14,01,18.60
2009,09,17,14,02,18.60
2009,09,17,14,03,18.60
2009,09,17,14,04,18.60
2009,09,17,14,05,18.60
2009,09,17,14,06,18.70
2009,09,17,14,07,18.80
2009,09,17,14,08,18.90
2009,09,17,14,09,18.90
2009,09,17,14,10,18.90
2009,09,17,14,11,18.90
2009,09,17,14,12,18.90
2009,09,17,14,13,18.90
2009,09,17,14,14,18.90
2009,09,17,14,15,18.80
2009,09,17,14,16,18.70
2009,09,17,14,17,18.70
2009,09,17,14,18,18.70
2009,09,17,14,19,18.60
2009,09,17,14,20,18.50
2009,09,17,14,21,18.50
2009,09,17,14,22,18.40
2009,09,17,14,23,18.30
2009,09,17,14,24,18.20
2009,09,17,14,25,18.20
2009,09,17,14,26,18.20
2009,09,17,14,27,18.20
2009,09,17,14,28,18.30
2009,09,17,14,29,18.30
2009,09,17,14,30,18.40
2009,09,17,14,31,18.40
2009,09,17,14,32,18.50
2009,09,17,14,33,18.60
2009,09,17,14,34,18.70
2009,09,17,14,35,18.60
2009,09,17,14,36,18.60
2009,09,17,14,37,18.60
2009,09,17,14,38,18.60
2009,09,17,14,39,18.70
2009,09,17,14,40,18.80
2009,09,17,14,41,18.80
2009,09,17,14,42,18.90
2009,09,17,14,43,18.90
2009,09,17,14,44,19.00
2009,09,17,14,45,19.10
2009,09,17,14,46,19.20
2009,09,17,14,47,19.30
2009,09,17,14,48,19.40
2009,09,17,14,49,19.40
2009,09,17,14,50,19.50
2009,09,17,14,51,19.50
2009,09,17,14,52,19.60
2009,09,17,14,53,19.60
2009,09,17,14,54,19.70
2009,09,17,14,55,19.70
2009,09,17,14,56,19.80
2009,09,17,14,57,19.70
2009,09,17,14,58,19.60
2009,09,17,14,59,19.40
2009,09,17,15,00,19.30
2009,09,17,15,01,19.30
2009,09,17,15,02,19.40
2009,09,17,15,03,19.40
2009,09,17,15,04,19.50
2009,09,17,15,05,19.50
2009,09,17,15,06,19.50
2009,09,17,15,07,19.50
2009,09,17,15,08,19.60
2009,09,17,15,09,19.60
2009,09,17,15,10,19.60
2009,09,17,15,11,19.80
2009,09,17,15,12,19.90
2009,09,17,15,13,20.00
2009,09,17,15,14,20.10
2009,09,17,15,15,20.20
2009,09,17,15,16,20.20
2009,09,17,15,17,20.20
2009,09,17,15,18,20.30
2009,09,17,15,19,20.30
2009,09,17,15,20,20.40
2009,09,17,15,21,20.50
2009,09,17,15,22,20.50
2009,09,17,15,23,20.60
2009,09,17,15,24,20.60
2009,09,17,15,25,20.60
2009,09,17,15,26,20.70
2009,09,17,15,27,20.70
2009,09,17,15,28,20.80
2009,09,17,15,29,20.80
2009,09,17,15,30,20.50
2009,09,17,15,31,20.20
2009,09,17,15,32,19.90
2009,09,17,15,33,19.70
2009,09,17,15,34,19.50
2009,09,17,15,35,19.40
2009,09,17,15,36,19.30
2009,09,17,15,37,19.10
2009,09,17,15,38,18.90
2009,09,17,15,39,18.90
2009,09,17,15,40,18.90
2009,09,17,15,41,18.90
2009,09,17,15,42,18.90
2009,09,17,15,43,18.80
2009,09,17,15,44,18.70
2009,09,17,15,45,18.70
2009,09,17,15,46,18.80
2009,09,17,15,47,18.90
2009,09,17,15,48,18.90
2009,09,17,15,49,18.90
2009,09,17,15,50,18.90
2009,09,17,15,51,19.10
2009,09,17,15,52,19.10
2009,09,17,15,53,19.20
2009,09,17,15,54,19.30
2009,09,17,15,55,19.40
2009,09,17,15,56,19.40
2009,09,17,15,57,19.50
2009,09,17,15,58,19.60
2009,09,17,15,59,19.60
2009,09,17,16,00,19.50
2009,09,17,16,01,19.50
2009,09,17,16,02,19.60
2009,09,17,16,03,19.70
2009,09,17,16,04,19.80
2009,09,17,16,05,19.90
2009,09,17,16,06,19.90
2009,09,17,16,07,20.00
2009,09,17,16,08,20.10
2009,09,17,16,09,20.20
2009,09,17,16,10,20.20
2009,09,17,16,11,20.40
2009,09,17,16,12,20.40
2009,09,17,16,13,20.50
2009,09,17,16,14,20.50
2009,09,17,16,15,20.60
2009,09,17,16,16,20.60
2009,09,17,16,17,20.60
2009,09,17,16,18,20.50
2009,09,17,16,19,20.50
2009,09,17,16,20,20.40
2009,09,17,16,21,20.30
2009,09,17,16,22,20.00
2009,09,17,16,23,19.80
2009,09,17,16,24,19.70
2009,09,17,16,25,19.70
2009,09,17,16,26,19.70
2009,09,17,16,27,19.70
2009,09,17,16,28,19.60
2009,09,17,16,29,19.50
2009,09,17,16,30,19.40
2009,09,17,16,31,19.40
2009,09,17,16,32,19.30
2009,09,17,16,33,19.30
2009,09,17,16,34,19.30
2009,09,17,16,35,19.30
2009,09,17,16,36,19.20
2009,09,17,16,37,19.10
2009,09,17,16,38,19.10
2009,09,17,16,39,19.10
2009,09,17,16,40,19.10
2009,09,17,16,41,19.00
2009,09,17,16,42,18.90
2009,09,17,16,43,18.90
2009,09,17,16,44,18.80
2009,09,17,16,45,18.70
2009,09,17,16,46,18.70
2009,09,17,16,47,18.60
2009,09,17,16,48,18.60
2009,09,17,16,49,18.60
2009,09,17,16,50,18.50
2009,09,17,16,51,18.50
2009,09,17,16,52,18.50
2009,09,17,16,53,18.50
2009,09,17,16,54,18.40
2009,09,17,16,55,18.40
2009,09,17,16,56,18.40
2009,09,17,16,57,18.40
2009,09,17,16,58,18.40
2009,09,17,16,59,18.40
2009,09,17,17,00,18.50
2009,09,17,17,01,18.50
2009,09,17,17,02,18.50
2009,09,17,17,03,18.60
2009,09,17,17,04,18.60
2009,09,17,17,05,18.60
2009,09,17,17,06,18.60
2009,09,17,17,07,18.60
2009,09,17,17,08,18.60
2009,09,17,17,09,18.60
2009,09,17,17,10,18.50
2009,09,17,17,11,18.50
2009,09,17,17,12,18.50
2009,09,17,17,13,18.50
2009,09,17,17,14,18.50
2009,09,17,17,15,18.50
2009,09,17,17,16,18.60
2009,09,17,17,17,18.60
2009,09,17,17,18,18.50
2009,09,17,17,19,18.50
2009,09,17,17,20,18.50
2009,09,17,17,21,18.60